Regional Weather Roundup
Issued by NWS Sioux Falls, SD

Home | Current Version | Previous Version | Text Only | Print | Product List | Glossary On
Versions: 1 2 3 4 5 6 7 8 9 10 11 12 13 14 15 16 17 18 19 20 21 22 23 24 25 26 27 28 29 30 31 32 33 34 35 36 37 38 39 40 41 42 43 44 45 46 47 48 49 50
000
ASUS43 KFSD 282210
RWRFSD

WEATHER ROUNDUP FOR SE SOUTH DAKOTA/SW MINNESOTA/NW IOWA
NATIONAL WEATHER SERVICE SIOUX FALLS SD
500 PM CDT THU JUL 28 2016

NOTE: "FAIR" INDICATES FEW OR NO CLOUDS BELOW 12,000 FEET WITH NO
SIGNIFICANT WEATHER AND OR OBSTRUCTIONS TO VISIBILITY.


SDZ038>040-050-052>070-282300-
SOUTHEAST SOUTH DAKOTA

CITY           SKY/WX    TMP DP  RH WIND       PRES   REMARKS
BROOKINGS      MOSUNNY   74  60  61 NE12      30.05F
CHAMBERLAIN    CLOUDY    81  58  45 NE3       30.04F
HURON          CLOUDY    80  60  50 NE12      30.02F
MADISON        FAIR      73  61  64 NE13      30.05F
MITCHELL       PTSUNNY   80  62  54 NE9       30.03S
SIOUX FALLS    PTSUNNY   76  60  57 NE10      30.02S
WINNER         CLOUDY    74  64  71 SE6       30.06F
YANKTON        CLOUDY    79  59  50 N8        30.00S
$$

MNZ071-072-080-081-089-090-097-098-282300-
SOUTHWEST MINNESOTA

CITY           SKY/WX    TMP DP  RH WIND       PRES   REMARKS
FAIRMONT       PTSUNNY   73  63  68 N13       30.01S
JACKSON        MOSUNNY   73  59  60 N8        30.03F
LUVERNE        SUNNY     75  57  53 N8        30.03S
MARSHALL       PTSUNNY   76  60  57 NE12      30.05
MONTEVIDEO     SUNNY     79  57  47 E13       30.07S
REDWOOD FALLS  MOSUNNY   77  58  51 NE6       30.03S
TRACY          SUNNY     76  62  60 N13       30.05F
WINDOM         MOSUNNY   75  61  60 N10       30.03F
WORTHINGTON    SUNNY     75  62  64 NE12      30.03F
$$

IAZ001>003-012>014-020>022-031-032-NEZ013-014-SDZ071-282300-
NORTHWEST IOWA

CITY           SKY/WX    TMP DP  RH WIND       PRES   REMARKS
CHEROKEE       MOSUNNY   76  64  64 NE7       30.01S
DENISON        MOSUNNY   77  59  53 N12       29.97F
ESTHERVILLE    MOSUNNY   73  64  73 N9        30.01F
LE MARS        PTSUNNY   77  63  61 NE8G15    30.01S
SHELDON        MOSUNNY   75  64  69 NE8       30.01R
SIOUX CITY     PTSUNNY   83  60  45 N12       29.99F
SPENCER        MOSUNNY   77  60  55 N12       30.01F
STORM LAKE       N/A     75  63  64 N10G17    30.02S
$$

ABBREVIATIONS USED IN REMARKS
   TC - TEMPERATURE IN CELSIUS
  WCI - WIND CHILL INDEX
   HX - HEAT INDEX
  VSB - VISIBILITY





USA.gov is the U.S. government's official web portal to all federal, state and local government web resources and services.